Temperature
12 13 14 14 14 15 15 15 15 16 16 15 16 16 18 18 18 18 18 18 19 18 18 18 18 18 18 18 18 17 17 17 16 15 15 14 15 15 14 14 14 14 13 13
12 13 14 14 14 13 14 14 14 15 15 15 15 16 17 18 18 18 18 18 18 18 18 18 18 17 18 18 18 18 17 17 16 16 16 16 16 15 15 15 14 14 14 13
12 13 13 13 13 13 13 13 14 14 14 15 14 16 17 18 18 17 17 17 17 17 18 17 17 17 17 17 17 17 17 17 17 17 16 15 14 14 14 14 14 14 14 14
12 12 12 12 13 13 13 14 13 13 13 14 14 15 17 18 18 18 18 18 17 17 17 17 17 17 17 17 17 17 17 17 17 16 15 15 15 15 15 15 15 15 15 14
12 12 12 12 13 13 13 13 13 13 13 13 14 13 16 17 17 18 18 18 17 17 16 16 17 17 17 17 17 17 17 17 16 16 15 15 15 15 15 15 15 14 14 14
12 12 12 12 13 13 12 12 12 12 12 12 14 14 16 17 17 18 18 18 17 16 16 16 16 16 16 17 17 17 17 17 16 16 15 15 15 15 14 14 14 14 14 14
11 12 11 11 12 12 12 12 12 12 12 13 14 13 15 17 17 17 17 16 16 16 16 16 16 16 16 16 17 16 16 17 16 16 16 16 16 15 15 15 14 14 14 14
11 12 12 12 12 12 12 12 12 12 13 14 14 13 16 17 16 15 15 15 15 15 15 15 15 15 16 16 16 16 16 16 16 16 16 16 16 15 15 15 14 14 14 14
10 11 11 11 11 12 11 12 12 11 12 12 14 14 16 16 15 15 15 14 14 14 14 15 15 15 15 15 15 15 16 16 16 16 16 15 15 15 15 15 14 14 14 14
10 10 11 10 10 11 11 11 11 11 11 12 14 14 15 15 15 15 15 15 14 13 13 13 14 14 14 15 15 15 15 15 15 15 15 15 15 15 15 15 14 14 14 14
9 9 10 10 10 11 10 10 11 11 11 11 13 15 15 15 15 14 14 14 13 12 12 13 13 13 14 14 14 14 15 15 15 15 15 15 15 15 14 14 14 14 14 13
9 9 9 10 11 10 10 11 11 10 10 11 12 13 15 14 14 13 13 13 12 12 12 12 12 12 13 13 13 13 14 14 14 14 14 14 14 14 14 14 14 14 13 13
8 8 8 10 10 9 9 9 10 9 9 10 10 13 14 13 13 12 12 12 12 12 11 11 11 11 12 12 12 13 13 13 13 13 13 13 13 14 14 14 14 13 13 13
8 7 8 9 10 9 8 8 8 8 8 9 10 11 13 13 13 13 12 12 12 11 11 11 11 11 11 11 12 12 12 12 13 13 13 13 13 13 13 13 13 13 13 12
7 7 8 8 9 8 8 8 8 8 9 9 10 11 12 13 13 12 12 11 11 11 10 10 10 10 10 11 11 11 12 12 12 12 12 12 12 13 13 13 13 12 12 12
7 6 7 7 8 8 8 8 8 9 9 9 10 10 12 12 12 11 11 11 11 10 10 10 10 10 10 10 11 11 11 11 11 12 12 12 12 12 12 12 12 12 12 12
6 6 6 7 8 7 7 8 9 9 9 9 9 11 11 11 11 11 11 10 10 9 9 9 9 9 9 10 10 10 10 11 11 11 11 11 11 11 11 11 11 11 11 11
5 5 5 6 6 5 9 10 10 9 10 10 10 10 10 10 10 10 10 9 9 9 9 8 8 9 9 9 9 9 10 10 10 10 10 11 10 10 11 11 10 10 10 10
6 5 5 5 6 7 9 9 9 8 9 10 10 10 10 9 9 9 9 8 8 8 8 8 8 8 8 8 8 9 9 9 9 9 10 10 10 10 10 10 10 10 10 10
5 5 5 5 5 6 9 9 9 8 8 9 9 9 9 9 8 9 8 7 7 7 7 7 7 7 7 7 8 8 8 8 9 9 9 9 9 9 9 9 9 9 9 9
4 4 4 5 5 7 9 8 8 7 8 8 8 8 7 8 8 7 7 6 6 6 6 6 6 6 6 7 7 7 7 7 8 8 8 8 8 8 8 8 8 8 8 8
6 5 5 5 5 6 8 7 7 8 8 7 7 7 6 6 6 6 6 5 5 5 5 5 5 6 6 6 6 6 7 7 7 7 7 7 7 7 7 7 7 7 7 7
6 7 7 6 7 9 7 7 7 7 7 6 6 6 5 5 5 5 5 5 5 5 4 5 5 5 5 5 5 5 6 6 6 6 6 6 6 6 6 6 6 6 6 6
6 6 6 6 7 8 7 6 6 6 6 6 5 5 5 5 5 4 4 4 4 4 4 4 4 4 4 5 5 4 5 5 5 5 5 5 5 5 6 6 6 5 5 5
6 5 5 5 7 7 6 6 6 5 5 5 4 4 4 4 4 3 3 3 3 3 3 3 3 3 3 4 4 4 4 4 4 4 4 4 4 4 4 5 5 4 5 5
5 5 5 5 6 6 6 6 5 5 4 4 4 4 3 3 3 3 3 3 2 2 2 2 2 3 3 3 3 3 3 3 3 3 3 3 3 3 3 3 3 3 4 4
Wind_Speed
4 7 10 12 14 14 12 14 17 16 11 11 18 22 22 19 17 17 16 16 16 16 17 15 14 15 15 15 16 18 19 20 18 15 16 15 16 15 15 15 18 20 20 20
5 11 12 10 11 12 14 16 17 14 10 11 18 24 22 20 19 17 17 17 17 17 15 14 13 13 14 15 16 18 19 19 19 17 17 16 16 15 15 14 17 20 20 20
10 5 5 9 11 13 15 16 15 14 13 12 15 19 19 18 17 16 16 16 16 16 16 14 13 13 13 14 16 16 19 20 21 20 15 13 13 12 13 16 16 19 21 21
8 8 7 8 11 12 14 12 13 14 12 9 8 13 16 13 14 14 14 14 14 14 14 13 12 12 13 14 13 16 18 19 20 20 18 19 17 17 19 17 16 18 21 22
7 6 8 11 11 11 10 9 12 14 13 14 13 12 14 10 14 13 13 13 13 12 12 13 12 12 12 12 12 14 16 18 19 20 21 21 20 19 16 16 18 18 19 21
9 6 6 7 8 9 7 7 9 10 9 13 15 13 14 11 12 12 11 10 11 11 11 11 11 10 10 9 9 11 14 16 18 20 21 22 24 22 20 19 18 17 15 17
7 8 6 5 5 6 6 5 5 6 8 10 7 11 13 10 9 11 11 10 9 9 9 9 9 9 8 8 9 10 13 14 16 19 20 21 24 24 23 21 19 18 15 16
6 7 7 7 8 7 9 9 8 7 9 10 7 12 10 7 7 8 8 8 8 8 8 8 8 8 8 8 9 10 12 13 15 17 19 19 22 19 18 20 18 18 16 17
5 6 3 5 6 7 7 9 9 9 11 12 10 11 12 8 6 6 6 7 8 8 9 9 8 7 7 8 9 9 11 12 13 15 17 18 19 20 20 19 19 16 16 15
4 7 6 4 4 8 9 6 5 7 7 11 13 15 11 8 7 6 7 7 8 9 9 9 8 7 6 7 7 8 9 11 12 13 14 13 17 18 19 18 19 18 18 17
5 6 6 4 7 10 8 8 8 8 8 8 12 10 4 6 6 7 8 8 9 10 10 10 9 8 6 6 6 5 6 8 10 11 12 13 14 16 16 17 18 17 17 17
5 5 9 11 9 8 11 12 12 10 11 11 13 13 3 5 6 7 8 9 10 11 10 10 9 8 7 7 6 6 5 6 8 9 10 12 13 13 15 16 17 17 17 17
4 5 6 6 5 5 7 10 12 11 10 12 15 14 3 5 7 9 11 12 13 13 12 10 9 9 8 8 7 7 6 6 6 6 8 9 11 12 14 15 15 16 16 16
5 7 11 14 11 7 10 12 13 13 12 15 20 23 19 17 16 15 16 15 14 14 13 11 10 10 9 8 8 8 8 6 6 6 7 8 10 11 12 12 14 15 15 16
6 10 14 18 18 16 18 18 17 19 20 20 24 26 25 22 20 19 17 16 15 14 13 11 11 11 10 9 8 8 8 7 6 6 7 8 9 9 10 11 12 13 14 15
6 9 11 17 17 18 21 22 23 23 23 26 27 29 24 21 19 18 17 15 14 14 12 12 11 12 11 10 9 8 8 7 6 7 7 7 7 8 9 10 10 11 12 13
6 7 9 14 15 15 18 20 22 21 20 21 24 25 20 19 17 17 16 14 13 13 12 12 12 11 11 11 10 9 9 8 6 7 7 7 7 8 8 8 9 10 11 12
12 11 7 9 9 15 12 7 13 18 20 20 21 20 18 18 17 16 14 13 13 12 12 12 11 11 11 11 10 9 8 7 6 6 7 6 6 7 7 8 9 9 9 9
18 14 8 7 11 16 15 10 8 11 16 15 17 18 17 16 14 14 11 10 11 11 11 11 11 12 11 10 10 9 8 7 7 7 7 6 6 6 7 8 8 8 8 8
13 15 11 10 11 12 10 4 5 8 13 9 11 13 12 10 11 10 8 9 11 11 10 11 11 11 10 9 8 8 8 7 7 7 7 6 6 6 7 7 7 6 7 7
8 10 15 17 14 13 9 4 4 8 8 3 4 7 8 9 10 10 10 10 11 12 12 11 10 10 9 9 7 7 7 8 8 7 6 6 6 6 6 5 5 5 5 6
11 9 12 12 14 13 5 5 7 8 6 5 7 8 8 10 11 11 12 12 12 12 12 11 10 9 9 8 7 7 7 8 7 6 6 5 5 4 4 4 4 5 5 5
11 11 8 10 12 9 6 9 9 8 10 10 10 10 10 11 13 14 14 13 12 12 11 9 8 9 8 7 6 7 8 7 6 6 6 5 5 4 4 4 4 4 5 5
10 11 13 14 16 17 14 13 12 11 12 12 11 12 12 14 14 14 13 12 11 10 9 8 8 8 8 8 7 6 7 6 6 6 6 5 5 4 3 3 3 4 4 5
12 8 13 19 20 18 17 16 15 14 13 13 13 13 13 13 13 13 11 11 10 9 8 7 8 8 8 8 7 6 6 6 6 6 5 5 5 4 4 3 3 4 4 5
16 17 18 18 17 15 16 14 14 15 15 14 14 13 12 11 12 12 11 10 9 8 8 8 8 8 8 8 7 7 6 5 5 5 5 4 4 4 3 3 3 2 3 3
Wind_Direction
201 220 227 228 229 250 257 261 265 268 273 269 266 270 272 269 265 265 264 264 263 262 260 255 247 237 230 224 219 215 211 209 206 203 204 207 210 209 209 210 210 208 208 206
218 236 242 245 237 244 252 260 268 276 269 267 273 274 271 264 260 261 263 262 262 265 265 258 247 237 229 224 219 216 213 209 207 206 205 208 210 209 210 210 212 211 210 209
234 252 243 236 239 243 250 254 264 276 289 270 278 276 263 257 253 253 255 256 260 263 264 261 251 241 231 227 222 218 214 212 209 208 207 208 211 210 210 212 212 212 211 211
248 252 246 244 242 242 257 256 263 271 278 272 269 281 273 262 254 251 253 254 258 260 260 259 256 248 238 232 226 222 219 215 211 207 207 206 208 209 211 210 211 211 211 211
242 242 240 246 246 239 255 266 263 265 266 271 257 262 272 260 254 255 257 258 259 261 260 258 258 252 245 238 229 223 221 218 213 209 209 211 215 216 215 212 212 212 211 213
257 258 253 253 258 241 255 270 267 256 255 259 251 246 270 257 256 268 270 269 268 267 264 262 261 258 252 244 233 226 223 221 216 213 213 215 216 216 216 213 212 212 212 212
258 242 232 242 256 233 230 253 262 249 236 251 246 243 257 268 263 267 276 284 286 280 274 271 270 263 258 249 238 230 226 224 220 217 217 219 220 218 218 217 215 213 212 211
256 251 219 221 236 243 227 228 239 260 263 272 249 243 257 279 278 273 274 282 289 292 291 287 285 278 268 257 245 236 231 229 224 221 222 223 222 220 222 221 218 216 216 215
249 263 259 247 244 236 234 230 244 265 273 274 259 259 270 270 267 270 279 292 295 299 304 300 296 290 286 276 259 244 238 235 230 227 225 225 224 221 222 222 221 221 220 217
244 270 266 264 245 231 240 246 233 236 258 261 262 259 261 268 267 275 289 304 311 320 324 327 317 310 307 302 287 261 247 243 238 232 229 229 228 226 224 222 221 220 219 217
234 254 267 245 232 241 227 229 237 246 250 261 270 265 263 259 272 287 296 307 317 326 328 328 327 326 327 324 315 298 271 255 247 239 235 233 233 230 227 224 224 222 220 217
231 252 264 258 255 257 245 239 234 244 251 252 265 268 278 268 284 298 309 318 320 324 326 324 325 326 328 324 316 308 298 277 259 247 240 238 236 233 230 228 225 222 221 219
209 236 271 270 232 221 240 242 240 251 264 259 260 265 274 278 300 304 307 312 315 318 320 321 322 325 325 323 316 307 301 293 281 263 248 244 240 236 234 233 229 223 220 219
245 237 242 258 275 277 261 256 250 245 252 260 258 268 276 281 288 296 301 303 307 309 311 314 316 316 319 318 317 310 303 296 285 273 259 249 244 241 239 237 232 226 220 218
238 252 253 262 271 272 266 263 257 250 251 258 267 269 274 280 287 292 295 298 301 302 306 311 314 314 315 313 313 312 306 299 289 275 265 257 253 249 244 238 233 227 220 217
231 254 263 266 266 267 268 263 257 255 255 257 264 268 273 281 284 284 286 289 292 297 302 305 309 311 311 309 308 307 304 299 289 278 271 271 264 253 244 240 235 228 224 217
229 240 258 268 274 276 264 254 251 249 247 252 258 265 276 281 281 282 285 288 290 291 297 301 305 308 309 307 304 301 299 298 288 282 278 272 262 254 249 243 235 228 225 221
237 243 252 269 268 253 261 258 247 251 256 256 259 265 271 275 281 283 283 285 288 291 295 299 303 307 309 308 304 301 299 295 289 284 282 278 268 256 250 242 236 231 225 222
227 231 240 248 256 266 268 257 241 248 262 264 264 266 271 280 282 278 279 287 290 293 297 299 301 303 305 307 308 306 301 296 293 291 289 285 275 263 250 241 238 232 224 223
217 221 231 239 250 258 270 258 243 249 264 268 264 269 275 279 277 284 303 300 294 296 298 301 305 306 306 308 310 306 302 299 294 293 291 287 277 264 254 245 240 234 224 223
194 211 225 238 248 260 271 249 202 236 272 306 270 275 276 275 277 293 304 300 298 299 302 304 305 305 306 310 308 302 301 299 301 303 299 295 286 272 262 251 241 227 217 217
218 221 224 231 242 254 232 192 220 257 288 289 287 286 284 283 289 292 297 300 302 303 304 305 304 305 310 313 308 302 303 307 309 306 300 298 295 287 271 254 240 220 208 212
227 228 233 229 245 270 238 234 253 269 276 283 285 288 289 287 288 292 294 298 301 303 304 305 304 305 307 313 310 303 308 313 311 307 302 299 298 290 269 250 235 217 208 212
241 240 246 255 259 263 263 263 267 269 269 277 280 287 289 286 287 291 293 296 301 304 304 304 305 304 306 314 314 307 310 313 310 306 303 300 297 296 285 261 235 219 215 214
245 240 248 256 264 271 264 261 265 267 269 274 280 282 280 281 284 289 292 295 299 300 301 302 302 301 303 311 312 313 312 310 308 305 304 307 305 296 292 279 261 243 236 230
244 244 249 258 264 267 273 273 272 272 271 273 278 280 277 276 279 283 284 290 293 294 298 299 301 302 305 308 309 313 312 307 303 302 304 306 303 296 291 291 299 292 254 250
Height
1478 1477 1472 1471 1472 1470 1470 1470 1467 1462 1462 1465 1458 1452 1447 1447 1447 1446 1445 1444 1443 1442 1442 1443 1443 1444 1445 1446 1447 1449 1451 1454 1457 1460 1462 1465 1467 1471 1474 1476 1480 1483 1486 1488
1476 1473 1469 1470 1472 1472 1471 1470 1465 1460 1461 1461 1455 1447 1441 1440 1440 1440 1439 1438 1437 1436 1436 1436 1436 1437 1438 1439 1440 1442 1444 1446 1448 1451 1455 1458 1461 1464 1467 1470 1473 1476 1479 1482
1472 1468 1470 1470 1470 1471 1468 1467 1464 1463 1460 1457 1455 1441 1432 1430 1432 1433 1432 1431 1430 1430 1430 1430 1430 1431 1431 1432 1433 1435 1437 1439 1441 1444 1448 1451 1455 1457 1460 1462 1465 1468 1472 1475
1470 1469 1469 1469 1467 1468 1465 1463 1464 1463 1462 1455 1454 1443 1424 1423 1424 1424 1424 1424 1424 1424 1424 1424 1424 1425 1425 1426 1427 1428 1430 1432 1434 1437 1440 1442 1444 1446 1449 1453 1457 1460 1464 1467
1467 1467 1467 1466 1464 1465 1462 1462 1462 1461 1460 1457 1450 1449 1422 1419 1418 1416 1417 1417 1418 1418 1418 1418 1418 1419 1419 1420 1421 1422 1423 1425 1427 1429 1432 1434 1436 1439 1444 1447 1450 1453 1456 1459
1466 1467 1466 1463 1462 1462 1462 1462 1460 1458 1458 1454 1441 1442 1420 1412 1412 1411 1411 1412 1413 1413 1413 1413 1413 1413 1413 1414 1414 1415 1416 1418 1420 1422 1424 1426 1428 1432 1435 1438 1441 1444 1447 1450
1463 1462 1463 1463 1462 1460 1461 1462 1459 1454 1450 1439 1434 1435 1417 1408 1408 1409 1410 1410 1409 1409 1408 1408 1407 1407 1407 1407 1408 1408 1409 1410 1412 1414 1416 1418 1421 1424 1426 1429 1432 1436 1438 1440
1463 1457 1457 1458 1458 1457 1456 1457 1458 1453 1440 1429 1430 1427 1410 1407 1408 1409 1409 1408 1407 1406 1404 1403 1402 1402 1402 1402 1402 1402 1403 1404 1405 1407 1409 1411 1413 1416 1419 1422 1425 1427 1430 1432
1461 1457 1456 1457 1456 1456 1454 1453 1451 1452 1445 1442 1425 1415 1407 1406 1407 1407 1406 1405 1404 1403 1401 1399 1398 1398 1397 1397 1397 1397 1397 1398 1399 1400 1402 1404 1406 1408 1411 1414 1417 1419 1422 1425
1461 1461 1455 1456 1456 1454 1453 1451 1452 1451 1446 1435 1418 1411 1407 1402 1403 1403 1403 1403 1402 1400 1398 1396 1395 1394 1393 1392 1392 1392 1393 1393 1393 1394 1395 1397 1399 1401 1403 1406 1408 1411 1414 1417
1462 1462 1455 1455 1452 1448 1450 1451 1448 1445 1441 1434 1420 1406 1398 1400 1402 1402 1402 1402 1401 1399 1397 1395 1392 1390 1389 1388 1388 1388 1388 1388 1388 1388 1389 1391 1392 1394 1397 1398 1400 1403 1406 1409
1460 1459 1453 1448 1445 1446 1445 1443 1444 1446 1439 1432 1422 1407 1400 1402 1402 1402 1402 1401 1400 1398 1395 1393 1391 1388 1386 1385 1384 1384 1383 1383 1383 1383 1383 1385 1386 1388 1390 1391 1393 1395 1398 1401
1459 1460 1454 1443 1445 1447 1445 1442 1442 1442 1440 1431 1424 1407 1400 1401 1402 1403 1401 1400 1398 1396 1393 1391 1389 1386 1384 1382 1381 1379 1379 1378 1378 1378 1378 1379 1380 1381 1382 1384 1386 1388 1390 1393
1458 1455 1452 1444 1436 1441 1443 1441 1440 1441 1437 1427 1417 1406 1400 1400 1400 1400 1399 1397 1395 1393 1390 1388 1386 1384 1381 1379 1377 1376 1375 1374 1373 1373 1372 1373 1373 1374 1376 1377 1379 1380 1382 1384
1454 1450 1445 1441 1439 1438 1436 1434 1433 1432 1426 1422 1408 1403 1396 1397 1397 1397 1395 1393 1391 1389 1387 1385 1383 1381 1379 1376 1374 1373 1371 1370 1369 1368 1367 1367 1368 1369 1369 1370 1371 1373 1375 1376
1450 1447 1443 1438 1435 1433 1430 1425 1423 1420 1417 1412 1406 1398 1394 1395 1394 1393 1391 1389 1387 1386 1384 1382 1380 1378 1375 1373 1371 1369 1367 1366 1364 1363 1363 1362 1362 1362 1363 1364 1365 1366 1368 1369
1446 1445 1442 1432 1428 1428 1421 1411 1410 1407 1403 1403 1399 1391 1390 1390 1389 1388 1387 1386 1384 1382 1381 1379 1377 1374 1372 1370 1367 1365 1363 1361 1360 1359 1358 1357 1357 1357 1357 1358 1359 1360 1361 1363
1441 1441 1439 1432 1430 1426 1401 1398 1398 1397 1394 1394 1391 1387 1388 1387 1385 1384 1383 1382 1380 1379 1377 1375 1372 1370 1368 1365 1363 1361 1359 1357 1355 1354 1353 1352 1352 1351 1351 1352 1352 1353 1354 1355
1432 1435 1434 1430 1421 1404 1395 1394 1396 1395 1389 1388 1386 1384 1383 1383 1381 1378 1379 1378 1377 1375 1373 1371 1368 1365 1363 1361 1358 1356 1354 1352 1350 1349 1348 1347 1346 1346 1346 1346 1346 1347 1348 1349
1425 1428 1430 1424 1418 1402 1386 1389 1390 1392 1386 1383 1382 1381 1380 1380 1377 1374 1375 1374 1372 1370 1368 1366 1363 1360 1358 1356 1354 1351 1349 1348 1346 1344 1343 1342 1341 1340 1340 1340 1340 1340 1341 1342
1419 1421 1421 1415 1409 1392 1386 1388 1389 1390 1381 1381 1380 1379 1378 1377 1376 1374 1372 1370 1368 1365 1363 1360 1358 1355 1353 1351 1349 1347 1345 1343 1342 1340 1339 1338 1336 1335 1335 1335 1335 1335 1335 1337
1406 1406 1406 1405 1401 1390 1383 1385 1384 1379 1378 1378 1378 1377 1375 1374 1372 1370 1368 1366 1363 1360 1358 1355 1353 1350 1348 1346 1344 1342 1340 1339 1337 1336 1334 1333 1332 1330 1330 1330 1330 1330 1330 1331
1397 1393 1389 1388 1382 1377 1379 1378 1377 1377 1377 1376 1375 1374 1372 1370 1368 1366 1364 1361 1358 1356 1353 1351 1348 1346 1344 1342 1340 1338 1336 1335 1333 1331 1330 1328 1327 1326 1326 1326 1325 1325 1326 1327
1388 1388 1386 1381 1375 1375 1375 1374 1374 1374 1373 1371 1371 1369 1368 1366 1363 1361 1359 1356 1353 1351 1348 1346 1344 1341 1339 1337 1336 1334 1332 1331 1329 1327 1325 1324 1323 1322 1321 1321 1321 1321 1321 1322
1380 1382 1379 1373 1370 1370 1369 1369 1369 1368 1368 1367 1366 1364 1362 1360 1358 1356 1353 1351 1349 1346 1344 1341 1339 1337 1335 1333 1332 1330 1328 1327 1325 1323 1322 1320 1319 1318 1317 1316 1316 1316 1316 1317
1373 1374 1372 1365 1364 1365 1362 1363 1363 1363 1361 1360 1359 1357 1356 1355 1353 1350 1348 1346 1343 1341 1338 1336 1335 1333 1331 1329 1327 1326 1324 1323 1321 1319 1317 1316 1315 1314 1313 1312 1312 1312 1313 1313